Location: Adrasan
(36.3319°N, 30.4314°E)
Time: 10:57:42
(UTC+00:00)

Meteor 1-10 Rocket - Pass Details

Date: 27 May 2024
Orbit: 834 x 910 km, 81.3° (Epoch: 16 June)

Event Time Altitude Azimuth Distance (km) Brightness Sun altitude
Exits shadow 19:30:07 - 214° (SW) 2,962 6.8 -22.8°
Reaches altitude 10° 19:31:24 10° 219° (SW) 2,515 6.5 -22.9°
Maximum altitude 19:36:33 35° 284° (WNW) 1,366 5.7 -23.5°
Drops below altitude 10° 19:41:40 10° 350° (N) 2,483 7.5 -24.1°
Sets 19:44:18 0° 359° (N) 3,413 8.2 -24.4°
